[[{"header":{"parameterUnit":"m.s-1","parameterCategory":1,"la1":30.2991,"la2":30.254,"lo1":-89.0895,"lo2":-89.0444,"dy":0.0017,"dx":0.0017,"nx":28,"ny":28,"refTime":"2023-09-02T21:00:00:Z","depth":0,"parameterNumber":2,"parameterNumberName":"U-component_of_WINDS"},"data":[0,0,0,0,0,0,0,0,0,0,0,0,0,0,0,0,0,0,0,0,0,0,0,0,0,0,0,0,0,0,0,0,0,0,0,0,0,0,0,0,0,0,0,0,0,0,0,0,0,0,0,0,0,0,0,0,0,0,-3.8741,-3.8742,0,-3.8794,-3.8794,-3.8795,-3.8776,-3.8775,-3.8773,-3.8772,-3.8826,-3.8828,-3.8831,0,0,0,0,0,0,0,0,0,0,0,0,0,-3.8625,-3.8627,-3.8741,-3.8742,-3.8742,-3.8793,-3.8794,-3.8795,-3.8776,-3.8775,-3.8773,-3.8772,-3.8825,-3.8828,-3.8831,0,0,0,0,0,0,0,0,0,0,0,0,0,-3.8676,-3.8628,-3.8741,-3.8739,-3.874,-3.8793,-3.8794,-3.8795,-3.8776,-3.8775,-3.8773,-3.8771,-3.8824,-3.8828,-3.8831,-3.889,0,0,-3.8843,-3.8845,0,0,0,0,0,0,0,0,-3.8673,-3.868,-3.8739,-3.8739,-3.874,-3.8776,-3.8773,-3.8827,-3.8777,-3.8762,-3.8772,-3.877,-3.8811,-3.8816,-3.8829,-3.8893,-3.8895,-3.8843,-3.8846,-3.8847,-3.8848,0,0,0,0,0,0,0,-3.867,-3.8678,-3.8762,-3.874,-3.874,-3.8736,-3.8741,-3.8783,-3.8796,-3.8763,-3.8762,-3.8769,-3.8811,-3.8826,-3.883,-3.8896,-3.8843,-3.8847,-3.8849,-3.885,-3.9009,-3.9011,0,0,0,0,0,0,-3.8666,-3.8675,-3.876,-3.8763,-3.8701,-3.8739,-3.8745,-3.8766,-3.8795,-3.8798,-3.877,-3.8768,-3.882,-3.8826,-3.8832,-3.8902,-3.8847,-3.8851,-3.8853,-3.9007,-3.9009,-3.9011,0,0,0,0,0,0,-3.8663,-3.8674,-3.8758,-3.8719,-3.8729,-3.8743,-3.8767,-3.8768,-3.8783,-3.88,-3.8803,-3.8783,-3.8819,-3.8827,-3.8876,-3.8903,-3.8852,-3.8856,-3.9005,-3.9008,-3.901,-3.9042,0,0,0,0,0,0,-3.866,-3.8673,-3.8695,-3.872,-3.8732,-3.8801,-3.8769,-3.8771,-3.879,-3.8787,-3.8813,-3.8816,-3.8818,-3.887,-3.8879,-3.8907,-3.8859,-3.9002,-3.9006,-3.9009,-3.9038,-3.9045,-3.9051,0,0,0,0,0,-3.8656,-3.8702,-3.8696,-3.8707,-3.876,-3.8802,-3.8809,-3.8811,-3.8792,-3.8815,-3.8826,-3.8815,-3.8899,-3.8875,-3.8885,-3.8915,-3.9,-3.9005,-3.9009,-3.9035,-3.9044,-3.9051,0,0,0,0,0,0,-3.8681,-3.8705,-3.8699,-3.8755,-3.8777,-3.8799,-3.8827,-3.882,-3.8848,-3.8844,-3.8846,-3.8852,-3.8902,-3.8914,-3.8887,-3.8973,-3.8947,-3.8953,-3.8963,-3.8972,-3.8978,-3.8973,-3.8862,0,0,0,0,0,-3.8693,-3.8725,-3.8745,-3.8792,-3.8803,-3.8814,-3.8832,-3.8832,-3.8855,-3.8864,-3.8878,-3.8901,-3.8932,-3.8953,-3.8983,-3.904,-3.9045,-3.9066,-3.9073,-3.9078,-3.9083,-3.9113,-3.9122,-3.9026,-3.9026,-3.9026,0,0,-3.8718,-3.8735,-3.8755,-3.8797,-3.8814,-3.8848,-3.8822,-3.8858,-3.8883,-3.8869,-3.8916,-3.8928,-3.8953,-3.9006,-3.903,-3.9017,-3.9111,-3.9083,-3.9088,-3.909,-3.9119,-3.9128,-3.9136,-3.9029,-3.9028,-3.9028,0,0,-3.8779,-3.8797,-3.8837,-3.8854,-3.888,-3.8887,-3.8897,-3.892,-3.8927,-3.8974,-3.8965,-3.8994,-3.9049,-3.9067,-3.9083,-3.9152,-3.9143,-3.9162,-3.9196,-3.9225,-3.9233,-3.9239,-3.9263,-3.9271,-3.9167,-3.9168,-3.9168,0,-3.8807,-3.8857,-3.8859,-3.8896,-3.8914,-3.8904,-3.8945,-3.8962,-3.8996,-3.9009,-3.8994,-3.9062,-3.9078,-3.9135,-3.9152,-3.9166,-3.9176,-3.9158,-3.9232,-3.9238,-3.9245,-3.9267,-3.9276,-3.917,-3.9169,-3.9169,-3.9169,0,-3.8889,-3.8923,-3.8953,-3.8986,-3.9008,-3.9047,-3.9054,-3.9076,-3.9075,-3.9083,-3.913,-3.915,-3.9183,-3.9197,-3.9195,-3.9253,-3.9244,-3.9231,-3.9204,-3.9256,-3.9277,-3.9285,-3.9172,-3.9172,-3.9171,-3.9171,0,0,-3.8967,-3.9,-3.9011,-3.9025,-3.9053,-3.908,-3.9119,-3.9151,-3.9169,-3.9194,-3.9225,-3.9272,-3.9259,-3.9278,-3.9279,-3.9305,-3.9357,-3.9288,-3.9289,-3.9299,-3.942,-3.9429,-3.9439,-3.9351,-3.9353,-3.9354,-3.9418,0,-3.903,-3.9096,-3.9099,-3.916,-3.9191,-3.9182,-3.9216,-3.9236,-3.9245,-3.9273,-3.9283,-3.9315,-3.9297,-3.9308,-3.9334,-3.9345,-3.9381,-3.9341,-3.938,-3.9381,-3.9372,-3.945,-3.9459,-3.9518,-3.9426,-3.9427,-3.9428,0,-3.9112,-3.9138,-3.9202,-3.9224,-3.9238,-3.9268,-3.9297,-3.9324,-3.9348,-3.9352,-3.9373,-3.937,-3.9409,-3.9382,-3.9435,-3.9408,-3.9425,-3.9433,-3.9435,-3.9437,-3.9407,-3.9453,-3.9537,-3.9545,-3.9442,-3.944,-3.944,0,-3.916,-3.9212,-3.9256,-3.9269,-3.9297,-3.9318,-3.9331,-3.9353,-3.9372,-3.9398,-3.941,-3.9441,-3.9457,-3.9481,-3.9486,-3.9467,-3.9539,-3.9513,-3.9543,-3.9543,-3.9558,-3.9556,-3.9644,-3.9571,-3.9571,-3.9571,-3.9571,0,-3.9229,-3.9268,-3.9278,-3.9306,-3.9349,-3.9352,-3.9395,-3.9406,-3.9425,-3.9455,-3.9449,-3.9477,-3.9483,-3.9511,-3.9516,-3.9559,-3.9567,-3.9571,-3.9571,-3.957,-3.957,-3.958,-3.9575,-3.9573,-3.9573,-3.9572,-3.9572,0,-3.929,-3.9299,-3.9346,-3.9369,-3.9376,-3.9406,-3.9426,-3.9452,-3.946,-3.9497,-3.9506,-3.9519,-3.9552,-3.956,-3.96,-3.9603,-3.9654,-3.9651,-3.9645,-3.9645,-3.9674,-3.967,-3.977,-3.9783,-3.9703,-3.9704,-3.9704,0,-3.9333,-3.9363,-3.9388,-3.9407,-3.9421,-3.9452,-3.9471,-3.9476,-3.9496,-3.9525,-3.9547,-3.958,-3.9606,-3.966,-3.9673,-3.9703,-3.97,-3.9733,-3.9705,-3.9703,-3.9699,-3.9697,-3.9699,-3.9738,-3.9739,-3.974,-3.974,0,-3.9408,-3.941,-3.9438,-3.9468,-3.9491,-3.9515,-3.9537,-3.9553,-3.956,-3.9584,-3.9618,-3.9638,-3.9679,-3.9711,-3.9742,-3.9755,-3.9749,-3.9749,-3.9758,-3.9756,-3.9751,-3.9753,-3.9658,-3.9747,-3.9746,-3.9745,-3.9745,-3.9745,-3.946,-3.9486,-3.9507,-3.9539,-3.9556,-3.9577,-3.9602,-3.9613,-3.9642,-3.9675,-3.9676,-3.9713,-3.9735,-3.9775,-3.979,-3.9819,-3.9809,-3.9821,-3.9824,-3.9827,-3.9829,-3.9748,-3.9825,-3.9825,-3.9824,-3.9824,-3.9824,0,-3.9533,-3.9547,-3.9575,-3.9607,-3.9631,-3.9624,-3.9648,-3.9669,-3.9701,-3.9722,-3.9748,-3.9787,-3.9818,-3.9834,-3.9865,-3.9885,-3.9883,-3.9893,-3.989,-3.9893,-3.9837,-3.9825,-3.9894,-3.9894,-3.9894,-3.9894,-3.9894,-3.9894,-3.9574,-3.9616,-3.9622,-3.9672,-3.9686,-3.9721,-3.9736,-3.9755,-3.9772,-3.9815,-3.9841,-3.9851,-3.987,-3.9902,-3.993,-3.9934,-3.9945,-3.9956,-3.9959,-3.9905,-3.9898,-3.9891,-3.988,-3.9959,-3.9959,-4.0013,-4.0013,-4.0014]},{"header":{"parameterUnit":"m.s-1","parameterCategory":1,"la1":30.2991,"la2":30.254,"lo1":-89.0895,"lo2":-89.0444,"dy":0.0017,"dx":0.0017,"nx":28,"ny":28,"refTime":"2023-09-02T21:00:00:Z","depth":0,"parameterNumber":3,"parameterNumberName":"V-component_of_WINDS"},"data":[0,0,0,0,0,0,0,0,0,0,0,0,0,0,0,0,0,0,0,0,0,0,0,0,0,0,0,0,0,0,0,0,0,0,0,0,0,0,0,0,0,0,0,0,0,0,0,0,0,0,0,0,0,0,0,0,0,0,5.347,5.347,0,5.3483,5.3483,5.3484,5.3465,5.3464,5.3463,5.3463,5.3475,5.3476,5.3477,0,0,0,0,0,0,0,0,0,0,0,0,0,5.3427,5.3428,5.347,5.347,5.3471,5.3483,5.3483,5.3484,5.3465,5.3464,5.3463,5.3462,5.3475,5.3476,5.3477,0,0,0,0,0,0,0,0,0,0,0,0,0,5.3443,5.3428,5.347,5.3463,5.3462,5.3483,5.3483,5.3484,5.3465,5.3464,5.3463,5.3462,5.3474,5.3476,5.3477,5.3506,0,0,5.3482,5.3482,0,0,0,0,0,0,0,0,5.3442,5.3445,5.3464,5.3463,5.3463,5.3471,5.3473,5.3491,5.3465,5.3464,5.3463,5.3461,5.3475,5.3476,5.348,5.3507,5.3507,5.3482,5.3482,5.3483,5.3484,0,0,0,0,0,0,0,5.3441,5.3444,5.3475,5.3464,5.3463,5.3458,5.3459,5.3476,5.3475,5.3464,5.3462,5.3464,5.3474,5.3479,5.3481,5.3507,5.3482,5.3483,5.3484,5.3484,5.3556,5.3557,0,0,0,0,0,0,5.3441,5.3443,5.3475,5.3476,5.345,5.346,5.3461,5.347,5.3474,5.3474,5.3465,5.3463,5.3477,5.3479,5.3481,5.3514,5.3483,5.3484,5.3485,5.3555,5.3556,5.3558,0,0,0,0,0,0,5.344,5.3444,5.3474,5.3459,5.3463,5.3461,5.3471,5.347,5.3475,5.3475,5.3475,5.3471,5.3476,5.3479,5.35,5.3514,5.3485,5.3486,5.3554,5.3556,5.3557,5.3581,0,0,0,0,0,0,5.3439,5.3444,5.3456,5.346,5.3464,5.3494,5.3472,5.3471,5.3478,5.3476,5.3481,5.348,5.3476,5.3498,5.3501,5.3516,5.3488,5.3553,5.3555,5.3557,5.3579,5.3584,5.3587,0,0,0,0,0,5.3438,5.3462,5.3456,5.346,5.3478,5.3494,5.3497,5.3491,5.3479,5.349,5.349,5.348,5.3512,5.35,5.3504,5.3519,5.3552,5.3554,5.3556,5.3577,5.3583,5.3587,0,0,0,0,0,0,5.346,5.3463,5.3456,5.3483,5.3488,5.3491,5.3505,5.3497,5.3506,5.3504,5.3497,5.3498,5.352,5.3521,5.3508,5.3546,5.353,5.3533,5.3545,5.355,5.3554,5.3553,5.3489,0,0,0,0,0,5.3468,5.3481,5.3483,5.3506,5.3509,5.3507,5.3514,5.3509,5.3515,5.3517,5.3518,5.3524,5.3535,5.3542,5.3553,5.3579,5.358,5.3592,5.3596,5.3599,5.3602,5.3615,5.362,5.3565,5.3565,5.3565,0,0,5.3485,5.3488,5.3497,5.3511,5.3514,5.3528,5.3509,5.3524,5.3534,5.3519,5.3539,5.354,5.3545,5.3569,5.3579,5.3571,5.3617,5.3602,5.3605,5.3606,5.3618,5.3623,5.3628,5.3567,5.3567,5.3566,0,0,5.3522,5.3526,5.3545,5.3549,5.3555,5.3553,5.3558,5.3561,5.3561,5.3581,5.357,5.3581,5.36,5.3604,5.3609,5.3646,5.3637,5.365,5.3671,5.3683,5.3688,5.3691,5.3704,5.3708,5.3652,5.3653,5.3653,0,5.3541,5.3562,5.3556,5.3571,5.3577,5.3564,5.3583,5.3587,5.3596,5.36,5.3591,5.3615,5.3618,5.3641,5.365,5.3655,5.3659,5.3649,5.3688,5.3691,5.3695,5.3706,5.3711,5.3654,5.3654,5.3654,5.3654,0,5.3585,5.3599,5.3614,5.3623,5.363,5.3648,5.3643,5.3652,5.3646,5.3645,5.3664,5.3667,5.3677,5.3682,5.3677,5.3705,5.3699,5.3689,5.3672,5.3702,5.3712,5.3717,5.3656,5.3656,5.3655,5.3655,0,0,5.3637,5.3642,5.3647,5.365,5.3655,5.3666,5.3682,5.3692,5.3699,5.3705,5.3718,5.3734,5.3724,5.373,5.3724,5.3736,5.3764,5.3724,5.3724,5.3731,5.3793,5.3801,5.3806,5.3758,5.3759,5.3759,5.3793,0,5.3674,5.3702,5.3696,5.3723,5.3735,5.3722,5.3736,5.374,5.3739,5.3749,5.3748,5.3759,5.3746,5.3749,5.3759,5.3758,5.3776,5.3756,5.3769,5.3769,5.3767,5.3812,5.382,5.3851,5.3797,5.3798,5.3798,0,5.372,5.3728,5.3756,5.3758,5.3763,5.3775,5.3783,5.3793,5.3797,5.3795,5.3801,5.3793,5.3808,5.3791,5.3811,5.3797,5.3802,5.3802,5.3803,5.3804,5.3785,5.3813,5.3862,5.3866,5.3805,5.3804,5.3804,0,5.3754,5.3772,5.379,5.3794,5.3796,5.3805,5.3807,5.381,5.3816,5.3823,5.3826,5.3835,5.3839,5.3846,5.384,5.3829,5.3861,5.3844,5.3859,5.3859,5.3867,5.3866,5.3916,5.3871,5.3871,5.387,5.387,0,5.3795,5.3813,5.3805,5.3817,5.3836,5.3829,5.3847,5.3847,5.385,5.3861,5.385,5.386,5.3853,5.3862,5.3858,5.3875,5.3877,5.3876,5.3874,5.3876,5.3877,5.3879,5.3877,5.3872,5.3871,5.3871,5.3871,0,5.3837,5.3833,5.3852,5.3853,5.3853,5.3867,5.3867,5.3878,5.3875,5.3889,5.3892,5.3888,5.3898,5.3894,5.3905,5.3902,5.3923,5.3919,5.3922,5.3921,5.3936,5.3934,5.3989,5.3995,5.3947,5.3947,5.3947,0,5.3863,5.3876,5.3878,5.3884,5.3886,5.3897,5.3902,5.3895,5.3901,5.3906,5.3916,5.3925,5.3932,5.3949,5.3947,5.3956,5.3951,5.397,5.3952,5.3954,5.3951,5.395,5.3951,5.3973,5.3974,5.3974,5.3975,0,5.3909,5.3906,5.3915,5.3923,5.393,5.3935,5.394,5.3946,5.3939,5.3946,5.3957,5.3962,5.3973,5.3982,5.3989,5.399,5.3981,5.398,5.3984,5.3986,5.3987,5.3986,5.3931,5.3979,5.3978,5.3978,5.3978,5.3978,5.3944,5.3954,5.3957,5.3966,5.3969,5.3973,5.3982,5.3981,5.3989,5.3997,5.3993,5.4004,5.4007,5.4015,5.4017,5.4026,5.4019,5.4025,5.4026,5.4027,5.4029,5.3986,5.4027,5.4027,5.4027,5.4027,5.4027,0,5.3989,5.399,5.3999,5.4005,5.4012,5.4003,5.4007,5.4014,5.4024,5.4027,5.4034,5.4046,5.4054,5.4053,5.406,5.4067,5.4063,5.407,5.4069,5.4069,5.4036,5.4031,5.4073,5.4073,5.4073,5.4073,5.4073,5.4073,5.4014,5.403,5.4028,5.4045,5.4045,5.4057,5.406,5.4064,5.4066,5.4079,5.4086,5.4084,5.4085,5.4093,5.41,5.4099,5.4102,5.411,5.4107,5.4076,5.4072,5.4067,5.4063,5.411,5.4111,5.414,5.414,5.414]}]]